TimeEST,TemperatureF,Dew PointF,Humidity,Sea Level PressureIn,VisibilityMPH,Wind Direction,Wind SpeedMPH,Gust SpeedMPH,PrecipitationIn,Events,Conditions,WindDirDegrees,DateUTC
12:41 AM,46.4,44.6,93,30.04,0.5,Calm,Calm,-,0.01,Fog,Fog,0,2012-12-09 05:41:00
12:54 AM,46.9,44.1,90,30.04,0.5,Calm,Calm,-,0.01,Fog,Fog,0,2012-12-09 05:54:00
1:02 AM,46.4,44.6,93,30.04,0.2,Calm,Calm,-,N/A,Fog,Fog,0,2012-12-09 06:02:00
1:43 AM,46.4,44.6,93,30.04,0.2,NE,4.6,-,N/A,Fog,Fog,40,2012-12-09 06:43:00
1:54 AM,46.9,45.0,93,30.06,0.5,Calm,Calm,-,N/A,Fog,Fog,0,2012-12-09 06:54:00
2:12 AM,46.4,44.6,93,30.05,1.0,NE,3.5,-,N/A,,Overcast,50,2012-12-09 07:12:00
2:22 AM,46.4,44.6,93,30.05,0.5,ENE,3.5,-,N/A,Fog,Fog,60,2012-12-09 07:22:00
2:46 AM,46.4,44.6,93,30.05,0.5,East,4.6,-,N/A,Fog,Fog,80,2012-12-09 07:46:00
2:54 AM,46.0,43.0,89,30.06,0.2,Calm,Calm,-,N/A,Fog,Fog,0,2012-12-09 07:54:00
3:17 AM,46.4,44.6,93,30.07,0.2,NE,4.6,-,N/A,Fog,Fog,50,2012-12-09 08:17:00
3:25 AM,48.2,44.6,87,30.07,0.5,Calm,Calm,-,N/A,Fog,Fog,0,2012-12-09 08:25:00
3:33 AM,48.2,44.6,87,30.07,0.2,Calm,Calm,-,N/A,Fog,Fog,0,2012-12-09 08:33:00
3:54 AM,48.0,46.0,93,30.08,0.2,Calm,Calm,-,N/A,Fog,Fog,0,2012-12-09 08:54:00
4:54 AM,48.9,46.9,93,30.09,0.2,Calm,Calm,-,N/A,Fog,Fog,0,2012-12-09 09:54:00
5:54 AM,48.9,46.9,93,30.10,0.2,East,3.5,-,N/A,Fog,Fog,100,2012-12-09 10:54:00
6:06 AM,48.2,46.4,93,30.10,0.5,ESE,3.5,-,N/A,Fog,Fog,110,2012-12-09 11:06:00
6:50 AM,48.2,46.4,93,30.10,0.2,East,3.5,-,N/A,Fog,Fog,80,2012-12-09 11:50:00
6:54 AM,48.9,46.0,90,30.11,0.2,Calm,Calm,-,N/A,Fog,Fog,0,2012-12-09 11:54:00
7:54 AM,50.0,46.9,89,30.14,0.2,ENE,3.5,-,N/A,Fog,Fog,70,2012-12-09 12:54:00
8:54 AM,50.0,48.0,93,30.18,0.2,Calm,Calm,-,N/A,Fog,Fog,0,2012-12-09 13:54:00
9:54 AM,52.0,48.9,89,30.19,0.2,NE,6.9,-,N/A,Fog,Fog,50,2012-12-09 14:54:00
10:22 AM,51.8,48.2,88,30.17,0.8,ENE,8.1,-,N/A,,Overcast,60,2012-12-09 15:22:00
10:33 AM,51.8,48.2,88,30.17,1.5,ENE,11.5,-,N/A,,Overcast,70,2012-12-09 15:33:00
10:40 AM,51.8,50.0,94,30.17,3.0,NE,10.4,-,N/A,,Overcast,50,2012-12-09 15:40:00
10:54 AM,52.0,48.9,89,30.17,3.0,ENE,15.0,20.7,N/A,,Overcast,60,2012-12-09 15:54:00
11:09 AM,51.8,48.2,88,30.16,2.5,ENE,13.8,18.4,N/A,,Overcast,60,2012-12-09 16:09:00
11:20 AM,51.8,48.2,88,30.15,4.0,ENE,15.0,-,N/A,,Overcast,60,2012-12-09 16:20:00
11:54 AM,52.0,48.9,89,30.14,5.0,ENE,10.4,-,N/A,,Overcast,70,2012-12-09 16:54:00
12:38 PM,51.8,48.2,88,30.13,2.0,ENE,9.2,-,N/A,,Overcast,60,2012-12-09 17:38:00
12:45 PM,51.8,48.2,88,30.12,1.2,ENE,9.2,-,N/A,,Overcast,70,2012-12-09 17:45:00
12:54 PM,52.0,50.0,93,30.13,1.0,East,8.1,-,N/A,,Overcast,80,2012-12-09 17:54:00
1:06 PM,51.8,50.0,94,30.12,0.8,ENE,8.1,-,N/A,,Overcast,60,2012-12-09 18:06:00
1:54 PM,53.1,50.0,89,30.12,1.0,ENE,5.8,-,N/A,,Overcast,70,2012-12-09 18:54:00
2:42 PM,53.6,51.8,94,30.11,0.8,East,5.8,-,N/A,,Overcast,100,2012-12-09 19:42:00
2:54 PM,53.1,51.1,93,30.12,0.8,East,6.9,-,N/A,,Overcast,90,2012-12-09 19:54:00
3:54 PM,54.0,51.1,90,30.12,0.2,East,6.9,-,N/A,Fog,Fog,90,2012-12-09 20:54:00
4:54 PM,54.0,52.0,93,30.12,0.5,East,3.5,-,N/A,Fog,Fog,90,2012-12-09 21:54:00
5:37 PM,53.6,51.8,94,30.11,0.2,ESE,4.6,-,N/A,Fog,Fog,110,2012-12-09 22:37:00
5:54 PM,54.0,52.0,93,30.11,0.2,ESE,3.5,-,N/A,Fog,Fog,110,2012-12-09 22:54:00
6:54 PM,54.0,52.0,93,30.09,0.2,East,3.5,-,N/A,Fog,Fog,90,2012-12-09 23:54:00
7:54 PM,54.0,52.0,93,30.09,0.2,Calm,Calm,-,N/A,Fog,Fog,0,2012-12-10 00:54:00
8:54 PM,54.0,52.0,93,30.06,0.2,ESE,4.6,-,N/A,Fog,Fog,120,2012-12-10 01:54:00
9:08 PM,53.6,51.8,94,30.05,0.5,ESE,3.5,-,N/A,Fog,Fog,110,2012-12-10 02:08:00
9:23 PM,53.6,51.8,94,30.05,1.8,Calm,Calm,-,N/A,,Overcast,0,2012-12-10 02:23:00
9:27 PM,55.4,51.8,88,30.05,3.0,SSE,5.8,-,N/A,,Overcast,160,2012-12-10 02:27:00
9:54 PM,54.0,52.0,93,30.04,3.0,Calm,Calm,-,N/A,,Overcast,0,2012-12-10 02:54:00
10:07 PM,53.6,51.8,94,30.03,2.5,Calm,Calm,-,N/A,,Overcast,0,2012-12-10 03:07:00
10:38 PM,53.6,51.8,94,30.02,2.5,SE,3.5,-,N/A,,Overcast,130,2012-12-10 03:38:00
10:46 PM,53.6,51.8,94,30.02,3.0,SE,4.6,-,N/A,,Overcast,140,2012-12-10 03:46:00
10:54 PM,54.0,52.0,93,30.02,4.0,SE,4.6,-,N/A,,Overcast,140,2012-12-10 03:54:00
11:54 PM,55.9,53.1,90,30.00,8.0,South,6.9,-,N/A,,Overcast,170,2012-12-10 04:54:00